• In Belgium
  • List of Countries
  • For 7 days
  • Water Temperature
  • Satellite Maps
  • Weather Map
  • Weather Widgets
  • user-avatar
    Login

    Hourly Weather Leukerbad

    Today, 14 November, Wednesday

    Time Temperature Precipitation Wind Pressure Humidity
    00:00 -1°C° 0 mm 1 mps 581 mmHg 90%
    01:00 -1°C° 0 mm 1 mps 581 mmHg 88%
    02:00 -1°C° 0 mm 1 mps 581 mmHg 86%
    03:00 -1°C° 0 mm 1 mps 580 mmHg 83%
    04:00 -2°C° 0 mm 1 mps 580 mmHg 80%
    05:00 -2°C° 0 mm 1 mps 580 mmHg 77%
    06:00 -2°C° 0 mm 1 mps 580 mmHg 75%
    07:00 -2°C° 0 mm 1 mps 580 mmHg 72%
    08:00 0°C° 0 mm 1 mps 581 mmHg 70%
    09:00 +2°C° 0 mm 1 mps 582 mmHg 68%
    10:00 +3°C° 0 mm 1 mps 583 mmHg 65%
    11:00 +4°C° 0 mm 1 mps 583 mmHg 65%
    12:00 +5°C° 0 mm 1 mps 583 mmHg 65%
    13:00 +6°C° 0 mm 1 mps 583 mmHg 64%
    14:00 +5°C° 0 mm 1 mps 582 mmHg 68%
    15:00 +4°C° 0 mm 1 mps 582 mmHg 71%
    16:00 +2°C° 0 mm 0 mps 581 mmHg 74%
    17:00 +2°C° 0 mm 1 mps 580 mmHg 75%
    18:00 +1°C° 0 mm 1 mps 580 mmHg 76%
    19:00 -1°C° 0 mm 1 mps 579 mmHg 77%
    20:00 -1°C° 0 mm 1 mps 579 mmHg 75%
    21:00 -1°C° 0 mm 1 mps 579 mmHg 72%
    22:00 -1°C° 0 mm 1 mps 579 mmHg 70%
    23:00 -1°C° 0 mm 1 mps 579 mmHg 69%

    Tomorrow, 15 November, Thursday

    Time Temperature Precipitation Wind Pressure Humidity
    00:00 -3°C° 0 mm 2 mps 579 mmHg 68%
    01:00 -3°C° 0 mm 2 mps 579 mmHg 68%
    02:00 -4°C° 0 mm 2 mps 579 mmHg 68%
    03:00 -4°C° 0 mm 2 mps 579 mmHg 68%
    04:00 -4°C° 0 mm 2 mps 578 mmHg 68%
    05:00 -4°C° 0 mm 2 mps 578 mmHg 67%
    06:00 -4°C° 0 mm 2 mps 578 mmHg 66%
    07:00 -4°C° 0 mm 2 mps 578 mmHg 65%
    08:00 0°C° 0 mm 1 mps 579 mmHg 63%
    09:00 +1°C° 0 mm 1 mps 580 mmHg 61%
    10:00 +3°C° 0 mm 1 mps 581 mmHg 59%
    11:00 +4°C° 0 mm 1 mps 581 mmHg 59%
    12:00 +5°C° 0 mm 1 mps 581 mmHg 59%
    13:00 +6°C° 0 mm 1 mps 582 mmHg 59%
    14:00 +5°C° 0 mm 1 mps 581 mmHg 63%
    15:00 +4°C° 0 mm 1 mps 580 mmHg 67%
    16:00 +2°C° 0 mm 0 mps 580 mmHg 72%
    17:00 +1°C° 0 mm 1 mps 579 mmHg 73%
    18:00 0°C° 0 mm 1 mps 579 mmHg 75%
    19:00 -1°C° 0 mm 1 mps 578 mmHg 76%
    20:00 -1°C° 0 mm 1 mps 578 mmHg 74%
    21:00 -1°C° 0 mm 1 mps 578 mmHg 71%
    22:00 -1°C° 0 mm 1 mps 578 mmHg 69%
    23:00 -1°C° 0 mm 1 mps 578 mmHg 67%

    Day after tomorrow, 16 November, Friday

    Time Temperature Precipitation Wind Pressure Humidity
    00:00 -1°C° 0 mm 1 mps 578 mmHg 64%
    01:00 -1°C° 0 mm 1 mps 578 mmHg 62%
    02:00 -1°C° 0 mm 1 mps 578 mmHg 61%
    03:00 -1°C° 0 mm 1 mps 578 mmHg 60%
    04:00 -2°C° 0 mm 1 mps 578 mmHg 59%
    05:00 -2°C° 0 mm 1 mps 578 mmHg 58%
    06:00 -2°C° 0 mm 1 mps 578 mmHg 57%
    07:00 -2°C° 0 mm 1 mps 578 mmHg 57%
    08:00 0°C° 0 mm 1 mps 579 mmHg 55%
    09:00 +1°C° 0 mm 1 mps 580 mmHg 54%
    10:00 +3°C° 0 mm 1 mps 581 mmHg 52%
    11:00 +3°C° 0 mm 1 mps 581 mmHg 54%
    12:00 +4°C° 0 mm 1 mps 581 mmHg 55%
    13:00 +5°C° 0 mm 1 mps 581 mmHg 56%
    14:00 +4°C° 0 mm 1 mps 580 mmHg 62%
    15:00 +3°C° 0 mm 1 mps 580 mmHg 67%
    16:00 +2°C° 0 mm 1 mps 579 mmHg 73%
    17:00 +1°C° 0 mm 1 mps 579 mmHg 76%
    18:00 0°C° 0 mm 1 mps 578 mmHg 80%
    19:00 -2°C° 0 mm 1 mps 578 mmHg 83%
    20:00 -2°C° 0 mm 1 mps 578 mmHg 83%
    21:00 -4°C° 0 mm 2 mps 578 mmHg 82%
    22:00 -4°C° 0 mm 2 mps 578 mmHg 82%
    23:00 -4°C° 0 mm 2 mps 578 mmHg 82%

    17 November, Saturday

    Time Temperature Precipitation Wind Pressure Humidity
    00:00 -4°C° 0 mm 2 mps 578 mmHg 82%
    01:00 -5°C° 0 mm 2 mps 578 mmHg 82%
    02:00 -5°C° 0 mm 2 mps 577 mmHg 82%
    03:00 -5°C° 0 mm 2 mps 577 mmHg 82%
    04:00 -3°C° 0 mm 1 mps 577 mmHg 83%
    05:00 -3°C° 0 mm 1 mps 577 mmHg 83%
    06:00 -4°C° 0 mm 1 mps 577 mmHg 83%
    07:00 -4°C° 0 mm 1 mps 576 mmHg 84%
    08:00 -3°C° 0 mm 1 mps 577 mmHg 80%
    09:00 -2°C° 0 mm 1 mps 578 mmHg 77%
    10:00 0°C° 0 mm 1 mps 578 mmHg 74%
    11:00 0°C° 0 mm 1 mps 578 mmHg 72%
    12:00 -1°C° 0 mm 2 mps 578 mmHg 71%
    13:00 -1°C° 0 mm 2 mps 578 mmHg 70%
    14:00 -2°C° 0 mm 2 mps 578 mmHg 74%
    15:00 -3°C° 0 mm 2 mps 577 mmHg 78%
    16:00 -3°C° 0 mm 2 mps 577 mmHg 82%
    17:00 -5°C° 0 mm 2 mps 577 mmHg 84%
    18:00 -6°C° 0 mm 2 mps 576 mmHg 86%
    19:00 -7°C° 0 mm 2 mps 576 mmHg 88%
    20:00 -8°C° 0 mm 3 mps 576 mmHg 86%
    21:00 -9°C° 0 mm 3 mps 576 mmHg 85%
    22:00 -9°C° 0 mm 3 mps 576 mmHg 84%
    23:00 -9°C° 0 mm 3 mps 576 mmHg 82%

    18 November, Sunday

    Time Temperature Precipitation Wind Pressure Humidity
    00:00 -9°C° 0 mm 3 mps 576 mmHg 81%
    01:00 -8°C° 0 mm 2 mps 576 mmHg 80%
    02:00 -9°C° 0 mm 2 mps 575 mmHg 78%
    03:00 -9°C° 0 mm 2 mps 575 mmHg 77%
    04:00 -9°C° 0 mm 2 mps 575 mmHg 75%
    05:00 -9°C° 0 mm 2 mps 575 mmHg 71%
    06:00 -10°C° 0 mm 2 mps 574 mmHg 67%
    07:00 -10°C° 0 mm 2 mps 574 mmHg 63%
    08:00 -8°C° 0 mm 2 mps 575 mmHg 57%
    09:00 -7°C° 0 mm 2 mps 576 mmHg 51%
    10:00 -3°C° 0 mm 1 mps 576 mmHg 44%
    11:00 -2°C° 0 mm 1 mps 576 mmHg 42%
    12:00 -1°C° 0 mm 1 mps 576 mmHg 39%
    13:00 0°C° 0 mm 1 mps 576 mmHg 36%
    14:00 -1°C° 0 mm 1 mps 575 mmHg 43%
    15:00 -2°C° 0 mm 1 mps 575 mmHg 49%
    16:00 -3°C° 0 mm 1 mps 574 mmHg 56%
    17:00 -6°C° 0 mm 1 mps 573 mmHg 60%
    18:00 -8°C° 0 mm 2 mps 573 mmHg 64%
    19:00 -9°C° 0 mm 2 mps 572 mmHg 68%
    20:00 -9°C° 0 mm 2 mps 572 mmHg 64%
    21:00 -9°C° 0 mm 2 mps 572 mmHg 61%
    22:00 -9°C° 0 mm 2 mps 572 mmHg 58%
    23:00 -9°C° 0 mm 2 mps 572 mmHg 55%

    19 November, Monday

    Time Temperature Precipitation Wind Pressure Humidity
    00:00 -9°C° 0 mm 2 mps 572 mmHg 53%
    01:00 -9°C° 0 mm 2 mps 572 mmHg 50%
    02:00 -9°C° 0 mm 2 mps 571 mmHg 49%
    03:00 -8°C° 0 mm 1 mps 571 mmHg 48%
    04:00 -8°C° 0 mm 1 mps 571 mmHg 46%
    05:00 -8°C° 0 mm 1 mps 570 mmHg 45%
    06:00 -9°C° 0 mm 1 mps 570 mmHg 44%
    07:00 -9°C° 0 mm 1 mps 570 mmHg 43%
    08:00 -7°C° 0 mm 1 mps 571 mmHg 42%
    09:00 -4°C° 0 mm 1 mps 572 mmHg 40%
    10:00 -3°C° 0 mm 1 mps 572 mmHg 39%
    11:00 -2°C° 0 mm 1 mps 573 mmHg 38%
    12:00 -1°C° 0 mm 1 mps 573 mmHg 38%
    13:00 0°C° 0 mm 1 mps 573 mmHg 37%
    14:00 -1°C° 0 mm 1 mps 572 mmHg 42%
    15:00 -2°C° 0 mm 1 mps 571 mmHg 48%
    16:00 -3°C° 0 mm 1 mps 571 mmHg 53%
    17:00 -6°C° 0 mm 1 mps 570 mmHg 56%
    18:00 -7°C° 0 mm 1 mps 569 mmHg 58%
    19:00 -8°C° 0 mm 1 mps 569 mmHg 61%
    20:00 -8°C° 0 mm 1 mps 569 mmHg 59%
    21:00 -8°C° 0 mm 1 mps 569 mmHg 57%
    22:00 -8°C° 0 mm 1 mps 569 mmHg 56%
    23:00 -9°C° 0 mm 1 mps 569 mmHg 57%
    Show more